This is the latest recevied weather packets stored in our database for station/object W5ALL-WX. If no packets are shown the sender has not sent any weather packets the latest 10 day(s).
| Time | Temp. | Humidity | Pressure | Rain* | Wind** | Luminosity | Snow |
|---|---|---|---|---|---|---|---|
| 1787905486 | 23.89° C | 51% | 1012.6 hPa | 0 mm | - | - | - |
| 1787905187 | 23.89° C | 51% | 1012.2 hPa | 0 mm | - | - | - |
| 1787904886 | 23.89° C | 50% | 1012.2 hPa | 0 mm | - | - | - |
| 1787904586 | 23.89° C | 50% | 1012.2 hPa | 0 mm | - | - | - |
| 1787904286 | 24.44° C | 51% | 1011.9 hPa | 0 mm | - | - | - |
| 1787903986 | 24.44° C | 48% | 1011.9 hPa | 0 mm | - | - | - |
| 1787903686 | 24.44° C | 47% | 1011.9 hPa | 0 mm | - | - | - |
| 1787903386 | 24.44° C | 48% | 1011.9 hPa | 0 mm | - | - | - |
| 1787903086 | 24.44° C | 49% | 1011.9 hPa | 0 mm | - | - | - |
| 1787902786 | 25° C | 48% | 1011.9 hPa | 0 mm | - | - | - |
| 1787902486 | 25.56° C | 47% | 1011.6 hPa | 0 mm | - | - | - |
| 1787902186 | 25.56° C | 44% | 1011.2 hPa | 0 mm | - | - | - |
| 1787901886 | 25.56° C | 44% | 1011.2 hPa | 0 mm | - | - | - |
| 1787901586 | 26.11° C | 44% | 1011.2 hPa | 0 mm | - | - | - |
| 1787901286 | 26.67° C | 41% | 1011.2 hPa | 0 mm | - | - | - |
| 1787900986 | 27.22° C | 36% | 1010.9 hPa | 0 mm | - | - | - |
| 1787900686 | 27.22° C | 36% | 1010.9 hPa | 0 mm | - | - | - |
| 1787900386 | 27.22° C | 35% | 1010.9 hPa | 0 mm | - | - | - |
| 1787900086 | 25.56° C | 42% | 1010.5 hPa | 0 mm | - | - | - |
| 1787899786 | 24.44° C | 49% | 1010.9 hPa | 0.25 mm | - | - | - |
| 1787899486 | 23.89° C | 52% | 1010.9 hPa | 0.76 mm | - | - | - |
| 1787899186 | 23.33° C | 54% | 1011.2 hPa | 0.76 mm | - | - | - |
| 1787898886 | 22.78° C | 57% | 1011.2 hPa | 1.02 mm | - | - | - |
| 1787898586 | 22.78° C | 57% | 1011.2 hPa | 1.02 mm | - | - | - |
| 1787898286 | 22.78° C | 56% | 1011.6 hPa | 1.02 mm | - | - | - |
* Rain latest hour (hover to see other rain measurements)
** Current wind speed in m/s (hover to see current wind gust speed)